This is the latest recevied weather packets stored in our database for station/object N1PRS-9. If no packets are shown the sender has not sent any weather packets the latest 10 day(s).
| Time | Temp. | Humidity | Pressure | Rain* | Wind** | Luminosity | Snow |
|---|---|---|---|---|---|---|---|
| 1777556131 | 9.44° C | 96% | 1007.6 hPa | 1.27 mm | - | 51 W/m² | - |
| 1777554943 | 9.44° C | 96% | 1007.8 hPa | 1.78 mm | - | 56 W/m² | - |
| 1777552535 | 8.89° C | 96% | 1008 hPa | 1.27 mm | - | 56 W/m² | - |
| 1777549832 | 8.89° C | 96% | 1008.3 hPa | 0.25 mm | - | 33 W/m² | - |
| 1777548932 | 8.89° C | 96% | 1008.6 hPa | 0.25 mm | - | 32 W/m² | - |
| 1777547432 | 8.89° C | 96% | 1008.3 hPa | 0.51 mm | - | 18 W/m² | - |
| 1777547134 | 8.89° C | 96% | 1008.2 hPa | 0.51 mm | - | 26 W/m² | - |
| 1777545945 | 8.89° C | 96% | 1008.1 hPa | 0.51 mm | - | 21 W/m² | - |
| 1777543833 | 8.33° C | 96% | 1008 hPa | 1.02 mm | - | 0 W/m² | - |
| 1777542034 | 8.33° C | 96% | 1008 hPa | 1.27 mm | - | 0 W/m² | - |
| 1777541445 | 8.33° C | 95% | 1008 hPa | 1.02 mm | - | 0 W/m² | - |
| 1777540233 | 8.33° C | 95% | 1008.3 hPa | 1.27 mm | - | 0 W/m² | - |
| 1777537865 | 8.89° C | 95% | 1008.7 hPa | 1.27 mm | - | 0 W/m² | - |
| 1777535140 | 8.89° C | 95% | 1009.1 hPa | 0.76 mm | - | 0 W/m² | - |
| 1777534832 | 8.89° C | 95% | 1008.9 hPa | 1.02 mm | - | 0 W/m² | - |
| 1777533031 | 8.89° C | 94% | 1009 hPa | 2.03 mm | - | 0 W/m² | - |
| 1777532131 | 8.89° C | 94% | 1009.1 hPa | 2.29 mm | - | 0 W/m² | - |
| 1777529131 | 8.89° C | 92% | 1009.6 hPa | 1.78 mm | - | 0 W/m² | - |
| 1777528232 | 8.89° C | 91% | 1010 hPa | 1.27 mm | - | 0 W/m² | - |
| 1777527331 | 9.44° C | 90% | 1010.1 hPa | 0.76 mm | - | 0 W/m² | - |
| 1777527049 | 9.44° C | 90% | 1010.2 hPa | 0.76 mm | - | 0 W/m² | - |
| 1777526432 | 9.44° C | 89% | 1010.3 hPa | 0.51 mm | - | 0 W/m² | - |
| 1777525832 | 9.44° C | 88% | 1010.5 hPa | 0.25 mm | - | 0 W/m² | - |
| 1777525532 | 10° C | 88% | 1010.6 hPa | 0.25 mm | - | 0 W/m² | - |
| 1777524034 | 10° C | 85% | 1010.7 hPa | 0 mm | - | 0 W/m² | - |
* Rain latest hour (hover to see other rain measurements)
** Current wind speed in m/s (hover to see current wind gust speed)